TimeEST,TemperatureF,Dew PointF,Humidity,Sea Level PressureIn,VisibilityMPH,Wind Direction,Wind SpeedMPH,Gust SpeedMPH,PrecipitationIn,Events,Conditions,WindDirDegrees,DateUTC
12:53 AM,27.0,19.9,75,29.97,10.0,NW,8.1,-,N/A,,Overcast,310,2013-02-13 05:53:00
1:53 AM,27.0,19.9,75,29.94,10.0,NW,5.8,-,N/A,,Overcast,320,2013-02-13 06:53:00
2:53 AM,27.0,21.0,78,29.94,10.0,WNW,4.6,-,N/A,,Overcast,290,2013-02-13 07:53:00
3:53 AM,27.0,19.9,75,29.92,10.0,WNW,4.6,-,N/A,,Overcast,290,2013-02-13 08:53:00
4:53 AM,26.1,19.9,78,29.91,10.0,NNW,4.6,-,N/A,,Overcast,330,2013-02-13 09:53:00
5:53 AM,27.0,19.9,75,29.91,10.0,North,3.5,-,N/A,,Overcast,360,2013-02-13 10:53:00
6:53 AM,27.0,19.9,75,29.89,10.0,NNW,4.6,-,N/A,,Overcast,330,2013-02-13 11:53:00
7:53 AM,26.1,19.9,78,29.88,10.0,ENE,3.5,-,N/A,,Overcast,60,2013-02-13 12:53:00
8:53 AM,27.0,19.9,75,29.87,10.0,Calm,Calm,-,N/A,,Overcast,0,2013-02-13 13:53:00
9:27 AM,26.6,19.4,74,29.82,10.0,Calm,Calm,-,N/A,,Overcast,0,2013-02-13 14:27:00
9:53 AM,27.0,19.9,75,29.86,10.0,Calm,Calm,-,N/A,,Overcast,0,2013-02-13 14:53:00
10:53 AM,28.0,21.0,75,29.88,10.0,South,5.8,-,N/A,,Overcast,190,2013-02-13 15:53:00
11:34 AM,28.4,21.2,74,29.82,10.0,SW,8.1,-,N/A,,Scattered Clouds,220,2013-02-13 16:34:00
11:53 AM,28.9,21.9,75,29.86,10.0,WSW,5.8,-,N/A,,Clear,240,2013-02-13 16:53:00
12:53 PM,30.9,21.9,69,29.83,10.0,West,3.5,-,N/A,,Clear,260,2013-02-13 17:53:00
1:53 PM,34.0,24.1,67,29.80,10.0,SW,8.1,-,N/A,,Clear,230,2013-02-13 18:53:00
2:53 PM,35.1,25.0,67,29.78,10.0,SSW,5.8,-,N/A,,Clear,210,2013-02-13 19:53:00
3:53 PM,37.0,26.1,65,29.77,10.0,SW,6.9,-,N/A,,Clear,230,2013-02-13 20:53:00
4:53 PM,37.0,26.1,65,29.77,10.0,SW,6.9,-,N/A,,Clear,230,2013-02-13 21:53:00
5:53 PM,34.0,26.1,73,29.78,9.0,SW,5.8,-,N/A,,Clear,220,2013-02-13 22:53:00
6:53 PM,32.0,26.1,79,29.80,9.0,SSW,4.6,-,N/A,,Clear,210,2013-02-13 23:53:00
7:53 PM,30.9,26.1,82,29.81,8.0,SW,5.8,-,N/A,,Partly Cloudy,220,2013-02-14 00:53:00
8:53 PM,30.0,26.1,85,29.82,7.0,SW,4.6,-,N/A,,Clear,220,2013-02-14 01:53:00
9:53 PM,28.9,26.1,89,29.83,7.0,Calm,Calm,-,N/A,,Partly Cloudy,0,2013-02-14 02:53:00
10:53 PM,28.0,26.1,92,29.82,6.0,Calm,Calm,-,N/A,,Clear,0,2013-02-14 03:53:00
11:53 PM,28.0,26.1,92,29.82,6.0,Calm,Calm,-,N/A,,Partly Cloudy,0,2013-02-14 04:53:00